Time,TemperatureF,DewpointF,PressureIn,WindDirection,WindDirectionDegrees,WindSpeedMPH,WindSpeedGustMPH,Humidity,HourlyPrecipIn,Conditions,Clouds,dailyrainin,SoftwareType,DateUTC
2013-02-22 00:09:00,26.2,25.0,29.95,East,94,0.0,-999.0,93,-99.99,,,0.00,weatherlink.com 1.10,2013-02-22 06:09:00,
2013-02-22 00:24:00,26.3,25.0,29.95,East,99,0.0,-999.0,93,-99.99,,,0.00,weatherlink.com 1.10,2013-02-22 06:24:00,
2013-02-22 00:39:00,26.6,25.0,29.94,East,94,0.0,-999.0,93,-99.99,,,0.00,weatherlink.com 1.10,2013-02-22 06:39:00,
2013-02-22 00:54:00,26.5,25.0,29.93,East,90,0.0,-999.0,93,-99.99,,,0.00,weatherlink.com 1.10,2013-02-22 06:54:00,
2013-02-22 01:09:00,26.3,25.0,29.93,East,97,0.0,-999.0,93,-99.99,,,0.00,weatherlink.com 1.10,2013-02-22 07:09:00,
2013-02-22 01:24:00,26.2,25.0,29.93,East,100,0.0,-999.0,93,-99.99,,,0.00,weatherlink.com 1.10,2013-02-22 07:24:00,
2013-02-22 01:39:00,26.2,25.0,29.92,ESE,105,0.0,-999.0,93,-99.99,,,0.00,weatherlink.com 1.10,2013-02-22 07:39:00,
2013-02-22 01:54:00,26.2,25.0,29.91,ESE,109,0.0,-999.0,93,-99.99,,,0.00,weatherlink.com 1.10,2013-02-22 07:54:00,
2013-02-22 02:09:00,26.2,25.0,29.91,ESE,109,0.0,-999.0,93,-99.99,,,0.00,weatherlink.com 1.10,2013-02-22 08:09:00,
2013-02-22 02:24:00,26.3,25.0,29.90,ESE,107,0.0,-999.0,94,-99.99,,,0.00,weatherlink.com 1.10,2013-02-22 08:24:00,
2013-02-22 02:39:00,26.3,25.0,29.89,ESE,107,0.0,-999.0,94,-99.99,,,0.00,weatherlink.com 1.10,2013-02-22 08:39:00,
2013-02-22 02:54:00,26.4,25.0,29.89,ESE,102,0.0,-999.0,94,-99.99,,,0.00,weatherlink.com 1.10,2013-02-22 08:54:00,
2013-02-22 03:09:00,26.4,25.0,29.88,East,101,0.0,-999.0,94,-99.99,,,0.00,weatherlink.com 1.10,2013-02-22 09:09:00,
2013-02-22 03:24:00,26.4,25.0,29.88,ESE,103,0.0,-999.0,94,-99.99,,,0.00,weatherlink.com 1.10,2013-02-22 09:24:00,
2013-02-22 03:39:00,26.5,25.0,29.87,East,94,0.0,-999.0,94,-99.99,,,0.00,weatherlink.com 1.10,2013-02-22 09:39:00,
2013-02-22 03:54:00,26.4,25.0,29.86,East,93,0.0,-999.0,94,-99.99,,,0.00,weatherlink.com 1.10,2013-02-22 09:54:00,
2013-02-22 04:09:00,26.4,25.0,29.86,East,92,0.0,-999.0,94,-99.99,,,0.00,weatherlink.com 1.10,2013-02-22 10:09:00,
2013-02-22 04:24:00,26.4,25.0,29.86,East,90,0.0,-999.0,94,-99.99,,,0.00,weatherlink.com 1.10,2013-02-22 10:24:00,
2013-02-22 04:39:00,26.3,25.0,29.86,East,89,0.0,-999.0,94,-99.99,,,0.00,weatherlink.com 1.10,2013-02-22 10:39:00,
2013-02-22 04:54:00,26.5,25.0,29.86,East,94,0.0,-999.0,94,-99.99,,,0.00,weatherlink.com 1.10,2013-02-22 10:54:00,
2013-02-22 05:09:00,26.6,25.0,29.86,East,94,0.0,-999.0,94,-99.99,,,0.00,weatherlink.com 1.10,2013-02-22 11:09:00,
2013-02-22 05:24:00,26.5,25.0,29.85,East,94,0.0,-999.0,94,-99.99,,,0.00,weatherlink.com 1.10,2013-02-22 11:24:00,
2013-02-22 05:39:00,26.5,25.0,29.84,East,96,0.0,-999.0,94,-99.99,,,0.00,weatherlink.com 1.10,2013-02-22 11:39:00,
2013-02-22 05:54:00,26.4,25.0,29.84,East,99,0.0,-999.0,94,-99.99,,,0.00,weatherlink.com 1.10,2013-02-22 11:54:00,
2013-02-22 06:09:00,26.5,25.0,29.84,ESE,106,0.0,-999.0,94,-99.99,,,0.00,weatherlink.com 1.10,2013-02-22 12:09:00,
2013-02-22 06:24:00,26.5,25.0,29.84,ESE,107,0.0,-999.0,94,-99.99,,,0.00,weatherlink.com 1.10,2013-02-22 12:24:00,
2013-02-22 06:39:00,26.7,25.0,29.83,ESE,102,0.0,-999.0,94,-99.99,,,0.00,weatherlink.com 1.10,2013-02-22 12:39:00,
2013-02-22 06:54:00,27.0,26.0,29.83,ESE,109,0.0,-999.0,94,-99.99,,,0.00,weatherlink.com 1.10,2013-02-22 12:54:00,
2013-02-22 07:09:00,27.7,26.0,29.82,ESE,122,0.0,-999.0,94,-99.99,,,0.00,weatherlink.com 1.10,2013-02-22 13:09:00,
2013-02-22 07:24:00,28.0,27.0,29.83,SE,128,0.0,-999.0,94,-99.99,,,0.00,weatherlink.com 1.10,2013-02-22 13:24:00,
2013-02-22 07:39:00,28.3,27.0,29.84,SE,130,0.0,-999.0,94,-99.99,,,0.00,weatherlink.com 1.10,2013-02-22 13:39:00,
2013-02-22 07:54:00,28.7,27.0,29.83,SE,130,0.0,-999.0,94,-99.99,,,0.00,weatherlink.com 1.10,2013-02-22 13:54:00,
2013-02-22 08:09:00,29.1,28.0,29.83,SE,136,0.0,-999.0,94,-99.99,,,0.00,weatherlink.com 1.10,2013-02-22 14:09:00,
2013-02-22 08:24:00,29.4,28.0,29.83,SSE,147,0.0,-999.0,94,-99.99,,,0.00,weatherlink.com 1.10,2013-02-22 14:24:00,
2013-02-22 08:39:00,29.8,28.0,29.83,SSE,148,0.0,-999.0,94,-99.99,,,0.00,weatherlink.com 1.10,2013-02-22 14:39:00,
2013-02-22 08:54:00,30.1,29.0,29.83,SSE,158,0.0,-999.0,95,-99.99,,,0.00,weatherlink.com 1.10,2013-02-22 14:54:00,
2013-02-22 09:09:00,30.5,29.0,29.83,SSE,157,0.0,-999.0,95,-99.99,,,0.00,weatherlink.com 1.10,2013-02-22 15:09:00,
2013-02-22 09:24:00,31.0,30.0,29.84,SSE,154,0.0,-999.0,95,-99.99,,,0.00,weatherlink.com 1.10,2013-02-22 15:24:00,
2013-02-22 09:39:00,31.5,30.0,29.84,SSE,148,0.0,-999.0,95,-99.99,,,0.00,weatherlink.com 1.10,2013-02-22 15:39:00,
2013-02-22 09:54:00,32.0,31.0,29.83,South,171,0.0,-999.0,96,-99.99,,,0.00,weatherlink.com 1.10,2013-02-22 15:54:00,
2013-02-22 10:09:00,32.5,32.0,29.84,South,189,0.0,-999.0,96,-99.99,,,0.00,weatherlink.com 1.10,2013-02-22 16:09:00,
2013-02-22 10:24:00,33.1,32.0,29.84,SW,232,0.0,-999.0,96,-99.99,,,0.00,weatherlink.com 1.10,2013-02-22 16:24:00,
2013-02-22 10:39:00,33.5,33.0,29.85,SW,236,0.0,-999.0,96,-99.99,,,0.00,weatherlink.com 1.10,2013-02-22 16:39:00,
2013-02-22 10:54:00,33.5,33.0,29.85,SW,232,0.0,-999.0,96,-99.99,,,0.00,weatherlink.com 1.10,2013-02-22 16:54:00,
2013-02-22 11:09:00,33.7,33.0,29.85,SW,234,0.0,-999.0,96,-99.99,,,0.00,weatherlink.com 1.10,2013-02-22 17:09:00,
2013-02-22 11:24:00,33.8,33.0,29.86,WSW,245,0.0,-999.0,96,-99.99,,,0.00,weatherlink.com 1.10,2013-02-22 17:24:00,
2013-02-22 11:39:00,33.9,33.0,29.85,WSW,247,0.0,-999.0,96,-99.99,,,0.00,weatherlink.com 1.10,2013-02-22 17:39:00,
2013-02-22 11:54:00,33.9,33.0,29.85,WSW,246,0.0,-999.0,95,-99.99,,,0.00,weatherlink.com 1.10,2013-02-22 17:54:00,
2013-02-22 12:09:00,34.1,33.0,29.85,WSW,250,0.0,-999.0,95,-99.99,,,0.00,weatherlink.com 1.10,2013-02-22 18:09:00,
2013-02-22 12:24:00,34.3,33.0,29.84,SW,236,0.0,-999.0,95,-99.99,,,0.00,weatherlink.com 1.10,2013-02-22 18:24:00,
2013-02-22 12:39:00,34.3,33.0,29.84,WSW,240,0.0,-999.0,94,-99.99,,,0.00,weatherlink.com 1.10,2013-02-22 18:39:00,
2013-02-22 12:54:00,34.2,32.0,29.84,West,268,0.0,-999.0,93,-99.99,,,0.00,weatherlink.com 1.10,2013-02-22 18:54:00,
2013-02-22 13:09:00,34.0,32.0,29.84,WSW,257,0.0,-999.0,93,-99.99,,,0.00,weatherlink.com 1.10,2013-02-22 19:09:00,
2013-02-22 13:24:00,34.1,32.0,29.84,WSW,253,0.0,-999.0,93,-99.99,,,0.00,weatherlink.com 1.10,2013-02-22 19:24:00,
2013-02-22 13:39:00,34.4,32.0,29.85,West,269,0.0,-999.0,92,-99.99,,,0.00,weatherlink.com 1.10,2013-02-22 19:39:00,
2013-02-22 13:54:00,34.6,32.0,29.85,West,263,0.0,-999.0,90,-99.99,,,0.00,weatherlink.com 1.10,2013-02-22 19:54:00,
2013-02-22 14:09:00,34.7,32.0,29.85,West,267,0.0,-999.0,88,-99.99,,,0.00,weatherlink.com 1.10,2013-02-22 20:09:00,
2013-02-22 14:24:00,34.7,31.0,29.86,West,267,0.0,-999.0,87,-99.99,,,0.00,weatherlink.com 1.10,2013-02-22 20:24:00,
2013-02-22 14:39:00,34.3,30.0,29.87,West,271,0.0,-999.0,85,-99.99,,,0.00,weatherlink.com 1.10,2013-02-22 20:39:00,
2013-02-22 14:54:00,34.1,29.0,29.88,West,260,0.0,-999.0,82,-99.99,,,0.00,weatherlink.com 1.10,2013-02-22 20:54:00,
2013-02-22 15:09:00,33.5,28.0,29.88,West,276,0.0,-999.0,81,-99.99,,,0.01,weatherlink.com 1.10,2013-02-22 21:09:00,
2013-02-22 15:24:00,33.2,28.0,29.89,WNW,300,0.0,-999.0,81,-99.99,,,0.02,weatherlink.com 1.10,2013-02-22 21:24:00,
2013-02-22 15:39:00,32.1,27.0,29.89,WNW,292,0.0,-999.0,81,-99.99,,,0.03,weatherlink.com 1.10,2013-02-22 21:39:00,
2013-02-22 15:54:00,31.7,27.0,29.89,WNW,301,0.0,-999.0,81,-99.99,,,0.03,weatherlink.com 1.10,2013-02-22 21:54:00,
2013-02-22 16:09:00,31.5,26.0,29.89,NW,313,0.0,-999.0,80,-99.99,,,0.04,weatherlink.com 1.10,2013-02-22 22:09:00,
2013-02-22 16:24:00,31.4,26.0,29.90,NW,304,0.0,-999.0,80,-99.99,,,0.04,weatherlink.com 1.10,2013-02-22 22:24:00,
2013-02-22 16:39:00,31.4,26.0,29.91,West,261,0.0,-999.0,79,-99.99,,,0.04,weatherlink.com 1.10,2013-02-22 22:39:00,
2013-02-22 16:54:00,31.2,26.0,29.91,West,269,0.0,-999.0,80,-99.99,,,0.05,weatherlink.com 1.10,2013-02-22 22:54:00,
2013-02-22 17:09:00,31.0,26.0,29.91,West,269,0.0,-999.0,81,-99.99,,,0.05,weatherlink.com 1.10,2013-02-22 23:09:00,
2013-02-22 17:24:00,30.8,26.0,29.92,West,271,0.0,-999.0,81,-99.99,,,0.05,weatherlink.com 1.10,2013-02-22 23:24:00,
2013-02-22 17:39:00,30.8,26.0,29.92,West,261,0.0,-999.0,81,-99.99,,,0.05,weatherlink.com 1.10,2013-02-22 23:39:00,
2013-02-22 17:54:00,30.7,26.0,29.93,West,268,0.0,-999.0,81,-99.99,,,0.05,weatherlink.com 1.10,2013-02-22 23:54:00,
2013-02-22 18:09:00,30.5,25.0,29.93,West,275,0.0,-999.0,81,-99.99,,,0.05,weatherlink.com 1.10,2013-02-23 00:09:00,
2013-02-22 18:24:00,30.4,26.0,29.94,West,261,0.0,-999.0,83,-99.99,,,0.05,weatherlink.com 1.10,2013-02-23 00:24:00,
2013-02-22 18:39:00,30.3,26.0,29.94,West,263,0.0,-999.0,83,-99.99,,,0.05,weatherlink.com 1.10,2013-02-23 00:39:00,
2013-02-22 18:54:00,30.2,25.0,29.94,WSW,257,0.0,-999.0,82,-99.99,,,0.05,weatherlink.com 1.10,2013-02-23 00:54:00,
2013-02-22 19:09:00,30.1,25.0,29.95,West,262,0.0,-999.0,82,-99.99,,,0.05,weatherlink.com 1.10,2013-02-23 01:09:00,
2013-02-22 19:24:00,30.0,25.0,29.95,West,261,0.0,-999.0,82,-99.99,,,0.05,weatherlink.com 1.10,2013-02-23 01:24:00,
2013-02-22 19:39:00,29.9,25.0,29.95,West,264,0.0,-999.0,83,-99.99,,,0.05,weatherlink.com 1.10,2013-02-23 01:39:00,
2013-02-22 19:54:00,29.8,25.0,29.96,West,268,0.0,-999.0,83,-99.99,,,0.05,weatherlink.com 1.10,2013-02-23 01:54:00,
2013-02-22 20:09:00,29.6,26.0,29.95,WSW,252,0.0,-999.0,85,-99.99,,,0.05,weatherlink.com 1.10,2013-02-23 02:09:00,
2013-02-22 20:24:00,29.4,26.0,29.96,WSW,255,0.0,-999.0,86,-99.99,,,0.05,weatherlink.com 1.10,2013-02-23 02:24:00,
2013-02-22 20:39:00,29.3,25.0,29.96,West,266,0.0,-999.0,85,-99.99,,,0.05,weatherlink.com 1.10,2013-02-23 02:39:00,
2013-02-22 20:54:00,29.1,25.0,29.96,West,265,0.0,-999.0,85,-99.99,,,0.05,weatherlink.com 1.10,2013-02-23 02:54:00,
2013-02-22 21:09:00,28.9,25.0,29.96,West,261,0.0,-999.0,85,-99.99,,,0.05,weatherlink.com 1.10,2013-02-23 03:09:00,
2013-02-22 21:24:00,28.8,25.0,29.96,West,275,0.0,-999.0,85,-99.99,,,0.05,weatherlink.com 1.10,2013-02-23 03:24:00,
2013-02-22 21:39:00,28.7,25.0,29.96,West,281,0.0,-999.0,84,-99.99,,,0.05,weatherlink.com 1.10,2013-02-23 03:39:00,
2013-02-22 21:54:00,28.6,25.0,29.96,West,266,0.0,-999.0,85,-99.99,,,0.05,weatherlink.com 1.10,2013-02-23 03:54:00,
2013-02-22 22:09:00,28.5,25.0,29.96,West,268,0.0,-999.0,85,-99.99,,,0.05,weatherlink.com 1.10,2013-02-23 04:09:00,
2013-02-22 22:24:00,28.4,24.0,29.96,WNW,284,0.0,-999.0,84,-99.99,,,0.05,weatherlink.com 1.10,2013-02-23 04:24:00,
2013-02-22 22:39:00,28.4,25.0,29.96,West,260,0.0,-999.0,85,-99.99,,,0.05,weatherlink.com 1.10,2013-02-23 04:39:00,
2013-02-22 22:54:00,28.2,24.0,29.96,West,259,0.0,-999.0,85,-99.99,,,0.05,weatherlink.com 1.10,2013-02-23 04:54:00,
2013-02-22 23:09:00,28.0,24.0,29.96,West,266,0.0,-999.0,85,-99.99,,,0.05,weatherlink.com 1.10,2013-02-23 05:09:00,
2013-02-22 23:24:00,28.0,24.0,29.96,West,269,0.0,-999.0,85,-99.99,,,0.05,weatherlink.com 1.10,2013-02-23 05:24:00,
2013-02-22 23:39:00,28.0,24.0,29.96,West,270,0.0,-999.0,85,-99.99,,,0.05,weatherlink.com 1.10,2013-02-23 05:39:00,
2013-02-22 23:54:00,27.8,24.0,29.96,West,273,0.0,-999.0,86,-99.99,,,0.05,weatherlink.com 1.10,2013-02-23 05:54:00,